Home   Weather   Kerman   Past weeks

Flag for Iran Past Weather in Kerman, Iran — Yesterday and Last 2 Weeks

Now
95 °F

Passing clouds.


Feels Like: 90 °F
Forecast: 65 / 94 °F
Wind: 7 mph from West

Location: Kerman Airport

Current Time: May 25, 2017 at 3:22:49 pm

Latest Report: May 25, 2017 at 2:30 pm


Visibility: N/A

Pressure: 30.07 "Hg (24.73 "Hg at 1762m altitude)

Humidity: 7%

Dew Point: 21 °F

Location of KermanLocation

Past Weather in Kerman — Graph

°F

Kerman Temperature Yesterday

Maximum temperature yesterday: 95 °F (at 2:30 pm)
Minimum temperature yesterday: 59 °F (at 5:30 am)
Average temperature yesterday: 81 °F

High & Low Weather Summary for the Past Weeks

 TemperatureHumidityPressure
High95 °F (May 17, 5:30 pm)94% (May 15, 1:30 am)30.18 "Hg (May 15, 1:30 am)
Low48 °F (May 15, 6:30 am)1% (May 23, 7:30 pm)29.86 "Hg (May 21, 3:30 pm)
Average76 °F23%30.07 "Hg
* Reported May 10 1:30 pm — May 25 1:30 pm, Kerman. Weather by CustomWeather, © 2017

Note: Actual official high and low records may vary slightly from our data, if they occured in-between our weather recording intervals... More about our weather records

Advertising

Kerman Weather History for the Previous 24 Hours

Scroll right to see more
 ConditionsComfort  
Time TempWeatherWind HumidityBarometerVisibility
1:30 pm
Thu, May 25
93 °FPassing clouds.5 mph8%30.07 "HgN/A
12:30 pm91 °FSunny.No wind9%30.09 "Hg10 mi
11:30 am90 °FSunny.5 mph9%30.12 "Hg10 mi
10:30 am88 °FSunny.5 mph10%30.15 "Hg10 mi
9:30 am84 °FSunny.5 mph14%30.15 "Hg10 mi
9:00 am82 °FSunny.5 mph14%30.15 "Hg10 mi
8:30 am77 °FClear.7 mph18%30.15 "Hg5 mi
7:30 am73 °FClear.5 mph20%30.12 "Hg5 mi
6:30 am68 °FSunny.No wind24%30.12 "Hg10 mi
5:30 am66 °FClear.7 mph26%30.09 "Hg10 mi
4:30 am64 °FClear.5 mph24%30.09 "Hg10 mi
3:30 am70 °FClear.5 mph20%30.07 "Hg10 mi
2:30 am75 °FClear.5 mph18%30.07 "Hg10 mi
1:30 am75 °FClear.7 mph15%30.07 "Hg10 mi
12:30 am81 °FClear.7 mph14%30.09 "Hg10 mi
11:30 pm
Wed, May 24
82 °FClear.14 mph13%30.09 "Hg10 mi
10:30 pm77 °FClear.5 mph8%30.09 "Hg10 mi
9:30 pm81 °FClear.5 mph5%30.07 "Hg10 mi
8:30 pm84 °FClear.9 mph5%30.07 "Hg10 mi
7:30 pm90 °FSunny.9 mph5%30.04 "Hg10 mi
6:30 pm95 °FSunny.12 mph5%30.01 "Hg10 mi
5:30 pm95 °FScattered clouds.9 mph5%30.04 "HgN/A
4:30 pm95 °FScattered clouds.9 mph5%30.04 "HgN/A
3:30 pm95 °FSunny.12 mph5%30.07 "Hg10 mi
Weather by CustomWeather, © 2017

See weather overviewHow to use our weather pages